Safford, AZ

4:18 PM MST on December 18, 2017 (GMT -0700)
Safford Regional

Weather History for KSAD - September, 2012

Change the Weather History Date:

Friday, September 7, 2012

  Actual Average Record
Temperature  
Mean Temperature 79 °F -  
Max Temperature 89 °F 93 °F 105 °F (1979)
Min Temperature 69 °F 62 °F 52 °F (1959)
Cooling Degree Days 14    
Growing Degree Days 29 (Base 50)    
Moisture  
Dew Point 66 °F    
Average Humidity 74    
Maximum Humidity 90    
Minimum Humidity 42    
Precipitation  
Precipitation 0.43 in - - ()
Sea Level Pressure  
Sea Level Pressure 29.89 in    
Wind  
Wind Speed 7 mph (NW)    
Max Wind Speed 32 mph    
Max Gust Speed 41 mph    
Visibility 8 miles    
Events Rain    
Averages and records for this station are not official NWS values.
T = Trace of Precipitation, MM = Missing Value Source: NWS Daily Summary

Daily Weather History Graph

Daily Weather History Graph

Search for Another Location

Airport or City:

Trip Planner

Search our weather history database for the weather conditions in past years. The results will help you decide how hot, cold, wet, or windy it might be!

Date:

Astronomy

Sep. 07, 2012 Rise Set
Actual Time 5:57 AM MST 6:34 PM MST
Civil Twilight 5:32 AM MST 6:59 PM MST
Nautical Twilight 5:03 AM MST 7:28 PM MST
Astronomical Twilight 4:33 AM MST 7:58 PM MST
Moon 10:56 PM MST (9/7) 12:29 PM MST (9/7)
Length of Visible Light 13h 27m
Length of Day
12h 37m
Waning Gibbous, 57% of the Moon is Illuminated
Sep 7
Waning Gibbous
Sep 8
Last Quarter
Sep 15
New
Sep 22
First Quarter
Sep 29
Full

Hourly Weather History & Observations

Time (MST) Temp. Heat Index Dew Point Humidity Pressure Visibility Wind Dir Wind Speed Gust Speed Precip Events Conditions
12:51 AM 69.1 °F - 66.0 °F 90% 29.90 in 10.0 mi West 6.9 mph - 0.01 in Rain Light Rain
1:51 AM 70.0 °F - 66.0 °F 87% 29.87 in 10.0 mi Calm Calm - 0.00 in   Clear
2:51 AM 70.0 °F - 66.0 °F 87% 29.85 in 10.0 mi SW 3.5 mph - N/A   Clear
3:51 AM 69.1 °F - 66.0 °F 90% 29.88 in 10.0 mi West 3.5 mph - N/A   Clear
4:51 AM 69.1 °F - 66.0 °F 90% 29.88 in 10.0 mi Calm Calm - N/A   Clear
5:51 AM 70.0 °F - 66.0 °F 87% 29.89 in 10.0 mi Calm Calm - N/A   Clear
6:51 AM 71.1 °F - 66.9 °F 87% 29.91 in 10.0 mi Calm Calm - N/A   Mostly Cloudy
7:51 AM 71.1 °F - 66.0 °F 84% 29.93 in 10.0 mi Calm Calm - N/A   Overcast
8:51 AM 72.0 °F - 66.0 °F 81% 29.94 in 10.0 mi Calm Calm - 0.00 in Rain Light Rain
9:51 AM 73.9 °F - 66.9 °F 79% 29.95 in 10.0 mi WNW 4.6 mph - 0.00 in   Overcast
10:51 AM 78.1 °F - 68.0 °F 71% 29.93 in 10.0 mi NW 10.4 mph - N/A   Scattered Clouds
11:51 AM 82.0 °F 84.1 °F 66.0 °F 58% 29.90 in 10.0 mi WNW 17.3 mph - N/A   Clear
12:51 PM 87.1 °F 89.2 °F 66.0 °F 49% 29.85 in 10.0 mi WNW 20.7 mph 26.5 mph N/A   Clear
1:51 PM 89.1 °F 91.0 °F 64.9 °F 45% 29.81 in 10.0 mi West 18.4 mph 27.6 mph N/A   Clear
2:51 PM 89.1 °F 91.0 °F 64.9 °F 45% 29.80 in 10.0 mi WNW 19.6 mph 26.5 mph N/A   Clear
3:51 PM 88.0 °F 88.4 °F 62.1 °F 42% 29.79 in 10.0 mi WNW 15.0 mph - N/A   Clear
4:51 PM 80.1 °F 81.1 °F 61.0 °F 52% 29.83 in 10.0 mi ESE 17.3 mph 28.8 mph N/A   Overcast
5:03 PM 77.0 °F - 62.6 °F 61% 29.97 in 10.0 mi East 21.9 mph 41.4 mph N/A   Overcast
5:20 PM 75.2 °F - 62.6 °F 65% 29.99 in 1.2 mi East 32.2 mph 41.4 mph 0.00 in Rain Rain
5:28 PM 73.4 °F - 62.6 °F 69% 29.97 in 0.5 mi West 11.5 mph 41.4 mph 0.28 in Rain Heavy Rain
5:37 PM 73.4 °F - 64.4 °F 73% 29.97 in 2.0 mi WSW 8.1 mph 23.0 mph 0.35 in Rain Heavy Rain
5:49 PM 71.6 °F - 66.2 °F 83% 29.96 in 1.8 mi North 4.6 mph - 0.40 in Rain Rain
5:51 PM 72.0 °F - 68.0 °F 87% 29.84 in 2.0 mi North 5.8 mph - 0.40 in Rain Rain
5:59 PM 73.4 °F - 66.2 °F 78% 29.97 in 7.0 mi Calm Calm - 0.01 in Rain Light Rain
6:51 PM 73.9 °F - 68.0 °F 82% 29.86 in 10.0 mi Calm Calm - 0.02 in Rain Light Rain
7:51 PM 73.0 °F - 69.1 °F 87% 29.87 in 10.0 mi East 4.6 mph - 0.00 in   Clear
8:51 PM 73.9 °F - 66.9 °F 79% 29.88 in 10.0 mi East 6.9 mph - N/A   Clear
9:51 PM 73.9 °F - 66.9 °F 79% 29.88 in 10.0 mi Calm Calm - N/A   Clear
10:51 PM 73.0 °F - 66.0 °F 79% 29.88 in 10.0 mi East 5.8 mph - N/A   Clear
11:51 PM 73.0 °F - 64.0 °F 73% 29.88 in 10.0 mi East 9.2 mph - N/A   Scattered Clouds